Location: Newark
(49.3000°N, 9.4667°E)
Time: 23:20:17
(UTC+00:00)

Transit 2A Rocket - Pass Details

Date: 20 May 2019
Orbit: 586 x 917 km, 66.7° (Epoch: 17 June)

Event Time Altitude Azimuth Distance (km) Brightness Sun altitude
Rises 02:09:35 0° 323° (NW) 3,472 8.6 -11.1°
Reaches altitude 10° 02:12:10 10° 322° (NW) 2,491 7.8 -10.8°
Maximum altitude 02:17:56 81° 236° (WSW) 816 5.1 -10.2°
Drops below altitude 10° 02:23:08 10° 150° (SSE) 2,258 7.3 -9.6°
Sets 02:25:23 0° 150° (SSE) 3,126 8.0 -9.4°
